DateTimeUTC,F1_A11,F1_S11,BsB_S11,BsG_S11,BsR_S11,BbsB_S11,BbsG_S11,BbsR_S11,BaB_A11,BaG_A11,BaR_A11,Tu_S11,T_S11,Uu_S11,U_S11,P_S11,T1_A11
2021-09-24T14:00:00Z,00000200,21000000,,,,,,,-000.06,0000.05,0000.18,17.9,24.7,,00.0,0663.6,30.9
2021-09-24T14:01:00Z,00000200,21000000,,,,,,,0000.21,0000.15,-000.07,17.9,24.7,,00.0,0663.6,30.9
2021-09-24T14:02:00Z,00000200,21000000,,,,,,,0000.11,0000.01,0000.19,17.8,24.7,,00.0,0663.6,30.9
2021-09-24T14:03:00Z,00000200,61000000,,,,,,,0000.96,0001.27,0000.53,17.8,24.7,,00.0,0663.6,30.9
2021-09-24T14:04:00Z,00000200,41000000,0000.83,0000.75,0000.36,0000.41,0000.32,-000.09,0000.24,-000.26,0000.14,17.8,24.5,,00.0,0664.5,30.9
2021-09-24T14:05:00Z,00000200,01000000,0001.35,0000.46,0000.33,0000.24,0000.01,0000.25,0000.65,0000.45,0000.55,17.8,24.4,,00.0,0664.6,30.9
2021-09-24T14:06:00Z,00000200,01000000,0000.83,0000.50,0000.26,-000.24,0000.35,-000.07,0000.19,0000.05,-000.17,17.8,24.3,,00.0,0664.6,30.9
2021-09-24T14:07:00Z,00000200,01000000,0000.62,0000.68,0000.08,0000.21,0000.15,-000.24,0000.18,0000.13,0000.55,17.9,24.4,,00.0,0664.6,30.9
2021-09-24T14:08:00Z,00000200,01000000,0000.79,0000.54,0000.39,-000.21,-000.06,-000.09,0000.33,0000.80,-000.06,17.9,24.4,,00.0,0664.5,30.9
2021-09-24T14:09:00Z,00000200,01000000,0000.85,0000.77,0000.10,-000.05,0000.25,-000.23,0000.31,0000.16,0000.39,17.9,24.4,,00.0,0664.6,30.9
2021-09-24T14:10:00Z,00000200,01000000,0001.25,0000.82,0000.38,-000.64,-000.02,0000.01,0006.64,0005.98,0004.60,18.0,24.4,,00.0,0664.6,30.9
2021-09-24T14:11:00Z,00000200,01000000,0001.61,0001.21,0000.76,0000.65,0000.56,-000.01,0027.28,0024.24,0018.27,18.1,24.5,,00.0,0664.6,30.9
2021-09-24T14:12:00Z,00000200,01000000,0002.33,0001.49,0000.76,0000.52,0000.73,-000.18,0032.63,0029.58,0021.93,18.2,24.5,,00.0,0664.5,30.9
2021-09-24T14:13:00Z,00000200,01000000,0002.95,0001.59,0000.98,0000.53,0000.46,-000.01,0038.40,0034.30,0025.81,18.2,24.5,,00.0,0664.5,30.9
2021-09-24T14:14:00Z,00000200,01000000,0002.15,0002.12,0000.67,0000.53,0000.61,-000.02,0041.04,0036.93,0028.11,18.3,24.6,,00.0,0664.6,31.0
2021-09-24T14:15:00Z,00000200,01000000,0002.58,0001.53,0000.77,0000.02,0000.55,-000.09,0036.06,0032.51,0023.88,18.3,24.6,,00.0,0664.5,31.0
2021-09-24T14:16:00Z,00000200,01000000,0001.81,0001.05,0000.82,0000.90,0000.35,-000.37,0021.94,0019.41,0015.15,18.3,24.6,,00.0,0664.5,30.9
2021-09-24T14:17:00Z,00000200,01000000,0001.14,0000.73,0000.39,0001.18,0000.63,-000.10,0016.08,0014.40,0010.89,18.2,24.6,,00.0,0664.5,30.9
2021-09-24T14:18:00Z,00000200,01000000,0001.13,0001.30,0000.46,0000.24,0000.23,0000.06,0020.52,0018.09,0013.57,18.1,24.5,,00.0,0664.5,30.9
2021-09-24T14:19:00Z,00000200,01000000,0001.49,0001.01,0000.59,0000.53,0000.36,-000.30,0025.72,0023.20,0017.01,18.1,24.5,,00.0,0664.5,30.9
2021-09-24T14:20:00Z,00000200,01000000,0001.83,0000.95,0000.46,0000.80,0000.39,-000.09,0022.31,0019.55,0014.96,18.0,24.4,,00.0,0664.4,30.9
2021-09-24T14:21:00Z,00000200,01000000,0001.64,0000.79,0000.31,0000.62,0000.22,0000.01,0014.73,0013.91,0010.31,18.0,24.4,,00.0,0664.5,30.9
2021-09-24T14:22:00Z,00000200,01000000,0000.52,0000.67,0000.39,-000.14,0000.14,0000.05,0004.50,0003.76,0002.53,18.0,24.4,,00.0,0664.5,30.9
2021-09-24T14:23:00Z,00000200,01000000,0000.16,0000.74,0000.52,0000.13,0000.16,0000.03,0007.08,0006.70,0005.56,18.1,24.5,,00.0,0664.5,30.9
2021-09-24T14:24:00Z,00000200,01000000,0001.48,0001.00,0000.87,0000.27,0000.37,-000.02,0015.52,0013.53,0009.61,18.2,24.5,,00.0,0664.5,30.9
2021-09-24T14:25:00Z,00000200,01000000,0001.38,0000.57,0000.54,0000.14,0000.28,0000.11,0017.73,0015.92,0012.37,18.2,24.5,,00.0,0664.5,30.9
2021-09-24T14:26:00Z,00000200,01000000,0000.37,0000.80,0000.31,0000.20,0000.20,0000.17,0011.72,0010.72,0007.82,18.3,24.6,,00.0,0664.5,31.0
2021-09-24T14:27:00Z,00000200,01000000,0000.49,0000.38,0000.12,0000.59,0000.09,0000.07,0004.02,0003.88,0002.78,18.3,24.6,,00.0,0664.5,31.0
2021-09-24T14:28:00Z,00000200,01000000,0000.37,0000.69,0000.34,-000.15,0000.16,0000.06,0002.15,0001.82,0001.75,18.4,24.6,,00.0,0664.5,31.0
2021-09-24T14:29:00Z,00000200,01000000,0000.64,0000.54,0000.20,-000.55,0000.15,-000.06,0001.12,0001.07,0000.26,18.4,24.7,,00.0,0664.5,31.0
2021-09-24T14:30:00Z,00000200,01000000,-000.04,0000.41,0000.51,0000.43,0000.27,0000.08,0007.26,0006.62,0005.44,18.4,24.7,,00.0,0664.4,31.0
2021-09-24T14:31:00Z,00000200,01000000,0001.00,0001.11,0000.89,0000.58,0000.28,0000.30,0022.23,0019.09,0014.31,18.3,24.7,,00.0,0664.4,31.0
2021-09-24T14:32:00Z,00000200,01000000,0000.56,0001.12,0000.52,0000.45,0000.18,-000.22,0017.87,0016.33,0012.13,18.3,24.6,,00.0,0664.4,31.0
2021-09-24T14:33:00Z,00000200,01000000,0001.01,0000.60,0000.63,-000.10,0000.34,-000.12,0008.45,0007.77,0006.04,18.2,24.6,,00.0,0664.4,30.9
2021-09-24T14:34:00Z,00000200,01000000,0000.89,0000.41,0000.03,0000.26,0000.10,-000.10,0001.05,0000.72,0000.41,18.1,24.6,,00.0,0664.4,30.9
2021-09-24T14:35:00Z,00000200,01000000,0000.48,0000.52,0000.29,0000.05,0000.13,-000.23,0000.74,0000.59,0000.55,18.1,24.5,,00.0,0664.4,30.9
2021-09-24T14:36:00Z,00000200,01000000,0000.67,0000.11,0000.04,-000.38,0000.04,-000.12,0000.75,0000.82,0000.56,18.1,24.5,,00.0,0664.4,30.9
2021-09-24T14:37:00Z,00000200,01000000,0000.21,0000.54,-000.13,0000.08,0000.14,-000.31,0000.07,0000.20,0000.17,18.1,24.5,,00.0,0664.4,30.9
2021-09-24T14:38:00Z,00000200,01000000,0000.25,0000.36,0000.14,0000.42,0000.35,-000.13,-002.69,-003.00,-003.01,18.2,24.5,,00.0,0664.4,30.9
2021-09-24T14:39:00Z,00000200,01000000,0000.46,0000.13,0000.07,-000.06,0000.33,-000.40,-000.32,-000.02,-000.27,18.2,24.6,,00.0,0664.4,30.9
2021-09-24T14:40:00Z,00000200,01000000,0000.21,0000.30,0000.42,0000.14,0000.55,0000.24,0000.51,0001.20,0000.41,18.3,24.6,,00.0,0664.4,31.0
2021-09-24T14:41:00Z,00000200,01000000,-000.18,0000.31,0000.04,-000.25,-000.02,-000.02,0000.55,-000.23,0000.29,18.3,24.6,,00.0,0664.4,31.0
2021-09-24T14:42:00Z,00000200,01000000,-000.22,0000.06,-000.00,-000.15,0000.04,-000.16,0000.55,0000.50,0000.20,18.4,24.7,,00.0,0664.4,31.0
2021-09-24T14:43:00Z,00000200,01000000,0000.31,0000.06,-000.03,-000.62,-000.34,-000.18,0004.87,0004.71,0003.29,18.5,24.7,,00.0,0664.4,31.0
2021-09-24T14:44:00Z,00000200,01000000,0001.24,0000.57,0000.50,0000.26,0000.31,0000.03,0006.89,0005.99,0004.71,18.5,24.8,,00.0,0664.5,31.0
2021-09-24T14:45:00Z,00000200,01000000,0000.11,0000.32,0000.12,0000.75,0000.19,-000.32,-000.11,-000.51,-000.04,18.5,24.8,,00.0,0664.5,31.0
2021-09-24T14:46:00Z,00000200,01000000,0000.35,0000.45,0000.46,-000.15,0000.04,-000.03,-000.16,0000.12,-000.11,18.5,24.8,,00.0,0664.5,31.0
2021-09-24T14:47:00Z,00000200,01000000,0000.79,0000.39,0000.19,0000.45,0000.10,-000.08,0000.28,0000.23,0000.25,18.5,24.7,,00.0,0664.5,31.0
2021-09-24T14:48:00Z,00000200,01000000,0000.29,0000.40,0000.08,-000.35,0000.32,-000.11,-000.44,-000.10,-000.31,18.4,24.7,,00.0,0664.5,31.0
2021-09-24T14:49:00Z,00000200,01000000,0000.80,0000.71,0000.20,0000.11,0000.17,-000.25,0000.15,0000.02,0000.02,18.3,24.7,,00.0,0664.5,31.0
2021-09-24T14:50:00Z,00000200,01000000,0000.43,0000.81,-000.02,-000.11,0000.19,0000.19,0001.06,0000.67,0000.64,18.3,24.6,,00.0,0664.5,30.9
2021-09-24T14:51:00Z,00000200,01000000,0000.32,0000.65,0000.23,0000.13,0000.11,0000.08,0001.62,0001.75,0001.46,18.3,24.6,,00.0,0664.5,30.9
2021-09-24T14:52:00Z,00000200,01000000,0001.48,0001.01,0000.51,0000.23,0000.44,0000.02,0014.98,0013.03,0009.61,18.3,24.6,,00.0,0664.5,30.9
2021-09-24T14:53:00Z,00000200,01000000,0001.79,0000.90,0000.74,0000.78,0000.42,0000.22,0029.00,0026.47,0019.94,18.3,24.6,,00.0,0664.5,30.9
2021-09-24T14:54:00Z,00000200,01000000,0001.95,0000.91,0000.68,0000.22,0000.48,-000.15,0022.55,0019.97,0015.16,18.4,24.7,,00.0,0664.5,31.0
2021-09-24T14:55:00Z,00000200,01000000,0000.19,0000.59,0000.17,0000.38,0000.20,0000.01,0010.21,0009.12,0007.04,18.5,24.7,,00.0,0664.5,31.0
2021-09-24T14:56:00Z,00000200,01000000,0000.55,0000.45,0000.29,0000.51,0000.25,0000.14,0000.46,0000.34,0000.15,18.5,24.7,,00.0,0664.5,31.0
2021-09-24T14:57:00Z,00000200,41000000,,,,,,,0000.24,0000.63,0000.16,18.6,24.8,,00.0,0664.8,31.0
2021-09-24T14:58:00Z,00000200,61000000,,,,,,,-000.08,-000.19,0000.27,18.3,24.9,,00.0,0663.6,31.0
2021-09-24T14:59:00Z,00000200,21000000,,,,,,,0000.02,-000.62,-000.36,18.3,25.0,,00.0,0663.5,31.0
